Flag for Brunei Weather past 2 weeks in Bandar Seri Begawan, Brunei

Now
88 °F

Broken clouds.


Feels Like: 100 °F
Forecast: 76 / 86 °F
Wind: 8 mph from North

Location: Brunei Airport

Current Time: Oct 25, 2014 at 12:01:33 PM

Latest Report: Oct 25, 2014 at 11:30 AM


Visibility: N/A

Pressure: 29.89 "Hg

Humidity: 70%

Dew point: 77 °F

Location of Bandar Seri BegawanLocation

Historic Weather in Bandar Seri Begawan — Graph

°F

Bandar Seri Begawan temperature yesterday

Maximum temperature yesterday: 88 °F (at 12:30 PM)
Minimum temperature yesterday: 75 °F (at 5:30 AM)
Average temperature yesterday: 81 °F

Past Weeks' High & Low Weather Summary

 TemperatureHumidityPressure
High91 °F (Oct 14, 12:00 PM)100% (Oct 11, 12:00 AM)29.92 "Hg (Oct 11, 12:00 AM)
Low75 °F (Oct 10, 10:30 PM)59% (Oct 13, 3:30 PM)29.71 "Hg (Oct 18, 3:00 PM)
Average82 °F86%29.84 "Hg
* Reported Oct 10 10:00 AM — Oct 25 10:30 AM, Bandar Seri Begawan, Weather by CustomWeather, © 2014

Note: Actual official high and low records may vary slightly from our data, if they occured in-between our weather recording intervals... More about our weather records

Advertising

Bandar Seri Begawan weather history for previous 24 hours

 ConditionsComfort  
Time TempWeatherWind HumidityBarometerVisibility
10:30 AM
Oct 25
88 °FPartly sunny.2 mph66%29.92 "HgN/A
10:00 AM88 °FBroken clouds.3 mph70%29.92 "HgN/A
9:30 AM84 °FPartly sunny.2 mph79%29.92 "HgN/A
9:00 AM84 °FScattered clouds.3 mph79%29.89 "HgN/A
8:30 AM82 °FScattered clouds.2 mph84%29.89 "HgN/A
8:00 AM81 °FPartly sunny.2 mph89%29.89 "HgN/A
7:30 AM79 °FPartly sunny.2 mph89%29.89 "HgN/A
7:00 AM75 °FBroken clouds.1 mph100%29.86 "HgN/A
6:30 AM75 °FBroken clouds.2 mph100%29.86 "HgN/A
6:00 AM75 °FPassing clouds.6 mph100%29.83 "HgN/A
5:30 AM75 °FPassing clouds.5 mph100%29.83 "HgN/A
5:00 AM75 °FPassing clouds.3 mph100%29.83 "HgN/A
4:30 AM75 °FPassing clouds.1 mph100%29.83 "HgN/A
4:00 AM75 °FPassing clouds.2 mph100%29.83 "HgN/A
3:30 AM75 °FPassing clouds.2 mph100%29.83 "HgN/A
3:00 AM77 °FPassing clouds.3 mph94%29.83 "HgN/A
2:30 AM77 °FPassing clouds.2 mph94%29.83 "HgN/A
2:00 AM77 °FPassing clouds.2 mph94%29.86 "HgN/A
1:30 AM77 °FPassing clouds.2 mph94%29.86 "HgN/A
1:00 AM77 °FPassing clouds.1 mph94%29.86 "HgN/A
12:30 AM77 °FPassing clouds.2 mph94%29.89 "HgN/A
12:00 AM77 °FPassing clouds.3 mph94%29.89 "HgN/A
11:30 PM
Oct 24
77 °FPassing clouds.2 mph100%29.89 "HgN/A
11:00 PM77 °FPassing clouds.2 mph100%29.89 "HgN/A
10:30 PM77 °FPartly cloudy.5 mph100%29.92 "HgN/A
10:00 PM77 °FPartly cloudy.5 mph100%29.89 "HgN/A
9:30 PM79 °FPartly cloudy.6 mph94%29.89 "HgN/A
9:00 PM79 °FPassing clouds.5 mph94%29.89 "HgN/A
8:30 PM79 °FLight rain. Passing clouds.3 mph94%29.86 "HgN/A
8:00 PM79 °FLight rain. Partly cloudy.7 mph94%29.86 "Hg4 mi
7:30 PM81 °FRain showers. Partly cloudy.7 mph94%29.86 "Hg4 mi
7:00 PM82 °FThunderstorms. Passing clouds.2 mph84%29.83 "HgN/A
6:30 PM82 °FThunderstorms. Passing clouds.2 mph84%29.83 "HgN/A
6:00 PM82 °FThunderstorms. Partly sunny.5 mph84%29.83 "HgN/A
5:30 PM82 °FSprinkles. Partly sunny.5 mph84%29.83 "HgN/A
5:00 PM84 °FSprinkles. Partly sunny.8 mph74%29.80 "HgN/A
4:30 PM86 °FPartly sunny.12 mph70%29.80 "HgN/A
4:00 PM86 °FPartly sunny.12 mph75%29.80 "HgN/A
3:30 PM84 °FPartly sunny.13 mph79%29.80 "HgN/A
3:00 PM86 °FPartly sunny.13 mph70%29.80 "HgN/A
2:30 PM86 °FPartly sunny.12 mph70%29.80 "HgN/A
2:00 PM86 °FPartly sunny.12 mph75%29.80 "HgN/A
1:30 PM88 °FPartly sunny.12 mph66%29.83 "HgN/A
1:00 PM88 °FPartly sunny.8 mph66%29.83 "HgN/A
12:30 PM88 °FPartly sunny.10 mph62%29.86 "HgN/A
12:00 PM86 °FBroken clouds.9 mph70%29.86 "HgN/A
Weather by CustomWeather, © 2014

See weather overviewHow to use our weather pages